Regional Weather Roundup
Issued by NWS Sioux Falls, SD

Home | Current Version | Previous Version | Graphics & Text | Print | Product List | Glossary On
Versions: 1 2 3 4 5 6 7 8 9 10 11 12 13 14 15 16 17 18 19 20 21 22 23 24 25 26 27 28 29 30 31 32 33 34 35 36 37 38 39 40 41 42 43 44 45 46 47 48 49 50
000
ASUS43 KFSD 220610
RWRFSD

WEATHER ROUNDUP FOR SE SOUTH DAKOTA/SW MINNESOTA/NW IOWA
NATIONAL WEATHER SERVICE SIOUX FALLS SD
100 AM CDT TUE AUG 22 2017

NOTE: "FAIR" INDICATES FEW OR NO CLOUDS BELOW 12,000 FEET WITH NO
SIGNIFICANT WEATHER AND OR OBSTRUCTIONS TO VISIBILITY.


SDZ038>040-050-052>070-220700-
SOUTHEAST SOUTH DAKOTA

CITY           SKY/WX    TMP DP  RH WIND       PRES   REMARKS
BROOKINGS      CLEAR     60  56  86 NW8       30.04R
CHAMBERLAIN    CLEAR     64  55  71 NW8       30.12S
6HR MIN TEMP:  64; 6HR MAX TEMP:  79;

HURON          CLEAR     55  52  89 NW7       30.07R
6HR MIN TEMP:  54; 6HR MAX TEMP:  79;

MADISON        FAIR      59  59 100 N10       30.05S
MITCHELL       CLEAR     60  55  83 NW10      30.07R
6HR MIN TEMP:  60; 6HR MAX TEMP:  76;

SIOUX FALLS    CLEAR     64  63  96 NW13      30.02R
6HR MIN TEMP:  63; 6HR MAX TEMP:  71; 6HR PCP: TRACE;

WINNER         FAIR      58  53  84 NW5       30.14R
YANKTON        CLEAR     66  63  90 W12       30.03R
$$

MNZ071-072-080-081-089-090-097-098-220700-
SOUTHWEST MINNESOTA

CITY           SKY/WX    TMP DP  RH WIND       PRES   REMARKS
FAIRMONT       PTCLDY    64  62  93 W8        29.95R
JACKSON        CLEAR     63  61  94 CALM      29.97R
LUVERNE        CLEAR     63  59  88 NW9       30.01R
MARSHALL       PTCLDY    63  59  87 NW10      30.00R
6HR MIN TEMP:  62; 6HR MAX TEMP:  71; 6HR PCP:  0.14;

MONTEVIDEO     CLEAR     61  61 100 N13       29.98R
PIPESTONE      CLEAR     64  59  82 N13       30.02R
REDWOOD FALLS  CLEAR     64  59  83 NW12      29.95R
TRACY          PTCLDY    64  61  90 NW12      29.99R
WINDOM         CLEAR     64  59  82 NW14      29.96R
WORTHINGTON    CLEAR     64  61  90 NW14      29.98R
$$

IAZ001>003-012>014-020>022-031-032-NEZ013-014-SDZ071-220700-
NORTHWEST IOWA

CITY           SKY/WX    TMP DP  RH WIND       PRES   REMARKS
CHEROKEE       PTCLDY    62  62 100 CALM      29.99R
DENISON        CLOUDY    64  63  94 NW5       30.00S
ESTHERVILLE    CLOUDY    61  61 100 W6        29.96R
ORANGE CITY    PTCLDY    63  63 100 CALM      29.99S
SHELDON        PTCLDY    61  61 100 CALM      29.97R
SIOUX CITY     MOCLDY    63  63 100 NW5       30.00R
6HR MIN TEMP:  63; 6HR MAX TEMP:  67; 6HR PCP:  0.51;

SPENCER        PTCLDY    61  59  93 W3        29.98R
6HR MIN TEMP:  60; 6HR MAX TEMP:  66;

STORM LAKE     CLOUDY    63  63 100 W8        29.99R FOG
$$

ABBREVIATIONS USED IN REMARKS
   TC - TEMPERATURE IN CELSIUS
  WCI - WIND CHILL INDEX
   HX - HEAT INDEX
  VSB - VISIBILITY




USA.gov is the U.S. government's official web portal to all federal, state and local government web resources and services.